Regional Weather Roundup
Issued by NWS Bismarck, ND

Home | Current Version | Previous Version | Text Only | Print | Product List | Glossary On
Versions: 1 2 3 4 5 6 7 8 9 10 11 12 13 14 15 16 17 18 19 20 21 22 23 24 25 26 27 28 29 30 31 32 33 34 35 36 37 38 39 40 41 42 43 44 45 46 47 48 49 50
000
ASUS43 KBIS 221110
RWRBIS

NWR BROADCAST TEXT
NATIONAL WEATHER SERVICE BISMARCK ND
600 AM CDT SUN OCT 22 2017

NOTE: "FAIR" INDICATES FEW OR NO CLOUDS BELOW 12,000 FEET WITH NO
SIGNIFICANT WEATHER AND/OR OBSTRUCTIONS TO VISIBILITY.


CITY           SKY/WX    TMP DP  RH WIND       PRES   REMARKS
WILLISTON      CLEAR     33  25  72 SW6       29.78S
MINOT          CLEAR     38  29  70 SW10      29.76F
MINOT AFB      CLEAR     33  27  77 W10       29.74F
BISMARCK       CLEAR     37  27  67 SW7       29.87R
DICKINSON      CLEAR     36  21  54 SW13      29.82F
GARRISON         N/A     35  31  85 W8        29.80F
HETTINGER ARPT CLEAR     30  19  63 W5        29.90S
JAMESTOWN      CLEAR     39  30  70 W12       29.83R
CARRINGTON     FAIR      37  30  75 W8G14     29.82S
LINTON           N/A     30  21  69 SW6       29.91R
TIOGA          FAIR      30  27  86 SW10      29.78R
$$

CITY           SKY/WX    TMP DP  RH WIND       PRES   REMARKS
GRAND FORKS    CLEAR     43  35  73 SW14      29.75R
GRAND FORKS AF CLEAR     41  33  72 W12       29.75R
DEVILS LAKE    CLEAR     41  34  76 W18       29.76R
FARGO          CLEAR     42  35  76 SW10      29.84R
CANDO          FAIR      36  36 100 W12       29.76R
CAVALIER       FAIR      43  36  75 W14G22    29.67R
GWINNER          N/A     37  34  87 SW9       29.88S
ROLLA          FLURRIES  32  32 100 SW13      29.71R
WALHALLA       FAIR     N/A N/A N/A W14G26    29.66R
$$

CITY           SKY/WX    TMP DP  RH WIND       PRES   REMARKS
ABERDEEN       CLEAR     30  28  92 S6        29.93R
MOBRIDGE       CLEAR     31  26  82 CALM      29.90S
BUFFALO          N/A     33  18  53 SW8       29.83S
RAPID CITY     CLEAR     31  17  56 SE5       29.96F
GLASGOW        CLOUDY    32  24  72 E9        29.72F
SIDNEY         CLEAR     31  24  75 SW12      29.80F
WOLF POINT     CLOUDY    27  22  81 CALM      29.77F
GLENDIVE       CLEAR     31  23  72 S8        29.82F
MILES CITY     CLEAR     32  23  69 S12       29.82F
BAKER          CLEAR     38  20  48 SW13      29.85F
$$

CITY           SKY/WX    TMP DP  RH WIND       PRES   REMARKS
BILLINGS       PTCLDY    47  25  42 W16       29.84F
GREAT FALLS    CLOUDY    52  31  44 SW22G36   29.68F
REGINA         CLEAR     23  19  86 S8        29.65F WCI  14
ESTEVAN        PTCLDY    27  25  93 SW9       29.71F WCI  17
$$





USA.gov is the U.S. government's official web portal to all federal, state and local government web resources and services.